Weather History for Maxwell AFB, AL

Change the Weather History Date:

Monday, December 3, 2012

  Actual Average Record
Temperature  
Mean Temperature 62 °F -  
Max Temperature 77 °F 62 °F 77 °F (2012)
Min Temperature 46 °F 42 °F 31 °F (2010)
Degree Days  
Heating Degree Days 4    
Growing Degree Days 12 (Base 50)    
Moisture  
Dew Point 49 °F    
Average Humidity 91    
Maximum Humidity 100    
Minimum Humidity 42    
Precipitation  
Precipitation 0.00 in - - ()
Sea Level Pressure  
Sea Level Pressure 30.26 in    
Wind  
Wind Speed 1 mph (SE)    
Max Wind Speed 10 mph    
Max Gust Speed -    
Visibility 4 miles    
Events      
Averages and records for this station are not official NWS values.
T = Trace of Precipitation, MM = Missing Value Source: NWS Daily Summary

Daily Weather History Graph

Daily Weather History Graph

Search for Another Location

Airport:

Trip Planner

Search our weather history database for the weather conditions in past years. The results will help you decide how hot, cold, wet, or windy it might be!

Date:

Astronomy

Dec. 03, 2012 Rise Set
Actual Time 6:31 AM CST 4:39 PM CST
Civil Twilight 6:04 AM CST 5:06 PM CST
Nautical Twilight 5:33 AM CST 5:37 PM CST
Astronomical Twilight 5:04 AM CST 6:06 PM CST
Moon 9:16 PM CST (12/3) 10:01 AM CST (12/3)
Length of Visible Light 11h 02m
Length of Day
10h 08m
Waning Gibbous, 78% of the Moon is Illuminated
Dec 3
Waning Gibbous
Dec 6
Last Quarter
Dec 13
New
Dec 19
First Quarter
Dec 28
Full

Hourly Weather History & Observations

Time (CST) Temp. Dew Point Humidity Pressure Visibility Wind Dir Wind Speed Gust Speed Precip Events Conditions
12:10 AM 50.0 °F 50.0 °F 100% 30.27 in 0.8 mi Calm Calm - N/A   Clear
12:11 AM 50.0 °F 50.0 °F 100% 30.27 in 1.0 mi Calm Calm - N/A   Clear
12:13 AM 50.0 °F 50.0 °F 100% 30.27 in 1.2 mi Calm Calm - N/A   Clear
12:16 AM 50.0 °F 50.0 °F 100% 30.27 in 2.0 mi Calm Calm - N/A   Clear
12:18 AM 50.0 °F 50.0 °F 100% 30.27 in 3.0 mi North 3.5 mph - N/A   Clear
12:23 AM 50.0 °F 50.0 °F 100% 30.27 in 2.5 mi Calm Calm - N/A   Clear
12:32 AM 50.0 °F 50.0 °F 100% 30.27 in 3.0 mi Calm Calm - N/A   Clear
12:55 AM 49.6 °F 49.1 °F 98% 30.27 in 8.0 mi Calm Calm - N/A   Clear
1:03 AM 48.2 °F 48.2 °F 100% 30.27 in 1.2 mi Calm Calm - N/A   Clear
1:12 AM 48.2 °F 46.4 °F 93% 30.27 in 4.0 mi Calm Calm - N/A   Clear
1:53 AM 50.0 °F 50.0 °F 100% 30.27 in 2.5 mi Calm Calm - N/A   Clear
1:55 AM 49.8 °F 49.3 °F 98% 30.27 in 2.0 mi Calm Calm - N/A   Clear
1:59 AM 50.0 °F 50.0 °F 100% 30.27 in 1.0 mi Calm Calm - N/A   Clear
2:00 AM 50.0 °F 50.0 °F 100% 30.27 in 1.0 mi Calm Calm - N/A   Clear
2:02 AM 50.0 °F 48.2 °F 94% 30.27 in 1.0 mi Calm Calm - N/A   Clear
2:03 AM 50.0 °F 48.2 °F 94% 30.27 in 1.2 mi Calm Calm - N/A   Clear
2:08 AM 50.0 °F 48.2 °F 94% 30.27 in 3.0 mi Calm Calm - N/A   Clear
2:42 AM 50.0 °F 48.2 °F 94% 30.27 in 2.5 mi Calm Calm - N/A   Clear
2:46 AM 50.0 °F 48.2 °F 94% 30.27 in 1.5 mi Calm Calm - N/A   Clear
2:48 AM 50.0 °F 48.2 °F 94% 30.27 in 1.2 mi Calm Calm - N/A   Clear
2:50 AM 50.0 °F 48.2 °F 94% 30.27 in 1.5 mi Calm Calm - N/A   Clear
2:54 AM 50.0 °F 48.2 °F 94% 30.27 in 2.0 mi Calm Calm - N/A   Clear
2:55 AM 49.3 °F 48.7 °F 98% 30.27 in 2.5 mi Calm Calm - N/A   Clear
3:09 AM 48.2 °F 48.2 °F 100% 30.27 in 1.0 mi Calm Calm - N/A   Clear
3:18 AM 48.2 °F 48.2 °F 100% 30.27 in 3.0 mi Calm Calm - N/A   Clear
3:25 AM 48.2 °F 48.2 °F 100% 30.27 in 1.5 mi Calm Calm - N/A   Clear
3:27 AM 48.2 °F 48.2 °F 100% 30.27 in 1.2 mi Calm Calm - N/A   Clear
3:30 AM 48.2 °F 46.4 °F 93% 30.27 in 1.5 mi Calm Calm - N/A   Clear
3:34 AM 48.2 °F 48.2 °F 100% 30.27 in 3.0 mi Calm Calm - N/A   Clear
3:47 AM 48.2 °F 48.2 °F 100% 30.27 in 2.5 mi Calm Calm - N/A   Clear
3:50 AM 48.2 °F 48.2 °F 100% 30.27 in 3.0 mi Calm Calm - N/A   Clear
3:55 AM 48.6 °F 48.2 °F 99% 30.27 in 5.0 mi Calm Calm - N/A   Clear
4:00 AM 48.2 °F 48.2 °F 100% 30.27 in 2.5 mi Calm Calm - N/A   Clear
4:03 AM 48.2 °F 48.2 °F 100% 30.27 in 1.5 mi Calm Calm - N/A   Clear
4:05 AM 48.2 °F 48.2 °F 100% 30.27 in 1.2 mi Calm Calm - N/A   Clear
4:08 AM 48.2 °F 48.2 °F 100% 30.27 in 1.2 mi Calm Calm - N/A   Clear
4:09 AM 48.2 °F 48.2 °F 100% 30.27 in 1.5 mi Calm Calm - N/A   Clear
4:11 AM 48.2 °F 48.2 °F 100% 30.27 in 2.0 mi Calm Calm - N/A   Clear
4:12 AM 48.2 °F 48.2 °F 100% 30.27 in 2.0 mi Calm Calm - N/A   Clear
4:14 AM 48.2 °F 48.2 °F 100% 30.27 in 3.0 mi Calm Calm - N/A   Clear
4:42 AM 48.2 °F 48.2 °F 100% 30.27 in 1.2 mi Calm Calm - N/A   Clear
4:45 AM 48.2 °F 48.2 °F 100% 30.27 in 1.0 mi Calm Calm - N/A   Clear
4:47 AM 48.2 °F 48.2 °F 100% 30.27 in 1.0 mi Calm Calm - N/A   Clear
4:53 AM 46.4 °F 46.4 °F 100% 30.27 in 1.2 mi Calm Calm - N/A   Clear
4:55 AM 46.9 °F 46.4 °F 98% 30.27 in 1.2 mi NNW 3.5 mph - N/A   Clear
5:00 AM 48.2 °F 46.4 °F 93% 30.27 in 2.0 mi NNW 3.5 mph - N/A   Clear
5:04 AM 48.2 °F 46.4 °F 93% 30.27 in 3.0 mi North 3.5 mph - N/A   Clear
5:38 AM 48.2 °F 48.2 °F 100% 30.28 in 2.5 mi Calm Calm - N/A   Clear
5:49 AM 48.2 °F 48.2 °F 100% 30.28 in 1.2 mi Calm Calm - N/A   Clear
5:53 AM 48.2 °F 48.2 °F 100% 30.28 in 1.5 mi Calm Calm - N/A   Clear
5:55 AM 47.8 °F 47.7 °F 99% 30.28 in 1.8 mi Calm Calm - N/A   Clear
5:57 AM 48.2 °F 48.2 °F 100% 30.28 in 3.0 mi Calm Calm - N/A   Clear
6:55 AM 47.8 °F 47.3 °F 98% 30.30 in 7.0 mi Calm Calm - N/A   Partly Cloudy
7:55 AM 51.8 °F 51.3 °F 98% 30.31 in 10.0 mi ENE 4.6 mph - N/A   Clear
8:55 AM 57.0 °F 52.2 °F 84% 30.31 in 10.0 mi NE 3.5 mph - N/A   Clear
9:55 AM 62.8 °F 53.2 °F 71% 30.31 in 10.0 mi Calm Calm - N/A   Mostly Cloudy
10:55 AM 70.2 °F 54.7 °F 58% 30.29 in 10.0 mi East 3.5 mph - N/A   Partly Cloudy
11:55 AM 75.0 °F 55.8 °F 51% 30.25 in 10.0 mi SSE 9.2 mph - N/A   Scattered Clouds
12:55 PM 77.0 °F 53.8 °F 44% 30.22 in 10.0 mi SSE 10.4 mph - N/A   Mostly Cloudy
1:55 PM 77.5 °F 52.7 °F 42% 30.20 in 10.0 mi Variable 5.8 mph - N/A   Mostly Cloudy
2:55 PM 76.6 °F 52.3 °F 43% 30.19 in 10.0 mi South 10.4 mph - N/A   Mostly Cloudy
3:55 PM - - N/A% 30.20 in 10.0 mi WSW 4.6 mph - N/A   Mostly Cloudy
4:55 PM 68.0 °F 52.3 °F 57% 30.21 in 10.0 mi Calm Calm - N/A   Mostly Cloudy
5:55 PM 63.9 °F 51.8 °F 65% 30.22 in 10.0 mi SE 4.6 mph - N/A   Mostly Cloudy
6:55 PM 60.4 °F 51.1 °F 71% 30.22 in 10.0 mi SSE 4.6 mph - N/A   Scattered Clouds
7:55 PM 60.6 °F 52.2 °F 74% 30.23 in 10.0 mi South 3.5 mph - N/A   Partly Cloudy
8:55 PM 59.0 °F 50.5 °F 73% 30.24 in 10.0 mi SSE 5.8 mph - N/A   Clear
9:55 PM 57.9 °F 50.2 °F 75% 30.23 in 10.0 mi SSE 5.8 mph - N/A   Clear
10:55 PM 54.9 °F 51.1 °F 87% 30.24 in 10.0 mi Calm Calm - N/A   Clear
11:55 PM 53.4 °F 51.3 °F 92% 30.23 in 10.0 mi Calm Calm - N/A   Clear